Live-Position
3D-Globus wird geladen...
Über OneWeb SL0270
Group: 3 satellites
Beschreibung wird geladen...
Nächste Überflüge
Passes for default location (London). Set your location on the main map for personalized predictions.
Höhenverlauf
Loading altitude history...
No altitude history available
Zweizeiliger Elementsatz
1 48988U 21060X 26132.84492911 -.00000123 00000-0 -35434-3 0 9998
2 48988 87.9103 235.7996 0001661 93.0853 267.0468 13.16595374235018
Epoch: 12. Mai 2026 •
Age: 6 hours
Aktueller Status
Höhe 1201.4 km
Geschwindigkeit 7.25 km/s
Subsatellitenpunkt -4.71°S,
144.77°E
Startdatum 1. Juli 2021
Alter 4.8 years
Typ internet
Startgruppe
Unknown Vehicle •
OneWeb Launch 8 •
34 satellites
OneWeb SL0249
48967
OneWeb SL0250 48968
OneWeb SL0252 48970
OneWeb SL0253 48971
OneWeb SL0254 48972
OneWeb SL0255 48973
OneWeb SL0256 48974
OneWeb SL0257 48975
OneWeb SL0258 48976
OneWeb SL0259 48977
OneWeb SL0260 48978
OneWeb SL0261 48979
OneWeb SL0262 48980
OneWeb SL0263 48981
OneWeb SL0264 48982
OneWeb SL0266 48984
OneWeb SL0267 48985
OneWeb SL0268 48986
OneWeb SL0269 48987
OneWeb SL0271 48989
...and 13 more
Technische Details
Klassifizierung Payload
Masse 148.00 kg
Trockenmasse 140.00 kg
Gesamtmasse 148.00 kg
Länge 1.30 m
Durchmesser 1.00 m
Spannweite 5.00 m
Form Trapezoid+2 pan
Hersteller ONEWUS
Bus-Typ ARROW
Phasenstatus In Orbit
Besitzer/Staat ONEWEBN/UK
Most Searched
Loading...